| time (UTC) | temp C | wind direction | speed KPH | gust KPH | rain 1hr cm | rain 24hr cm | rain mn cm | humidity % | barometer mb |
| 20260509053925 | 20 | 202 | 0.0 | 0.0 | 0.00 | 0.69 | 0.00 | 86 | 1013.3 |
| 20260509053409 | 20 | 202 | 0.0 | 0.0 | 0.00 | 0.69 | 0.00 | 86 | 1013.3 |
| 20260509052904 | 20 | 248 | 0.0 | 0.0 | 0.00 | 0.69 | 0.00 | 86 | 1013.3 |
| 20260509052400 | 20 | 248 | 0.0 | 0.0 | 0.00 | 0.69 | 0.00 | 86 | 1013.3 |
| 20260509051851 | 20 | 225 | 0.0 | 1.6 | 0.00 | 0.69 | 0.00 | 86 | 1014.0 |
| 20260509051322 | 20 | 270 | 0.0 | 1.6 | 0.00 | 0.69 | 0.00 | 86 | 1014.0 |
| 20260509050756 | 20 | 270 | 0.0 | 4.8 | 0.00 | 0.69 | 0.00 | 86 | 1013.8 |
| 20260509050254 | 20 | 270 | 1.6 | 4.8 | 0.00 | 0.69 | 0.00 | 85 | 1013.8 |
| 20260509045733 | 20 | 315 | 0.0 | 0.0 | 0.00 | 0.69 | 0.69 | 85 | 1012.6 |
| 20260509045204 | 20 | 270 | 0.0 | 6.4 | 0.00 | 0.69 | 0.69 | 84 | 1012.6 |
| 20260509044651 | 20 | 225 | 3.2 | 6.4 | 0.00 | 0.69 | 0.69 | 84 | 1012.5 |
| 20260509044150 | 20 | 248 | 1.6 | 4.8 | 0.00 | 0.69 | 0.69 | 84 | 1012.5 |
| 20260509043637 | 20 | 225 | 0.0 | 0.0 | 0.00 | 0.69 | 0.69 | 84 | 1012.5 |
| 20260509043106 | 20 | 270 | 0.0 | 4.8 | 0.00 | 0.69 | 0.69 | 84 | 1012.4 |
| 20260509042602 | 21 | 135 | 1.6 | 6.4 | 0.00 | 0.69 | 0.69 | 84 | 1012.4 |
| 20260509042033 | 21 | 225 | 4.8 | 6.4 | 0.00 | 0.69 | 0.69 | 83 | 1012.5 |
| 20260509041502 | 21 | 158 | 3.2 | 4.8 | 0.00 | 0.69 | 0.69 | 83 | 1012.5 |
| 20260509040959 | 21 | 158 | 1.6 | 4.8 | 0.00 | 0.69 | 0.69 | 83 | 1012.3 |
| 20260509040449 | 21 | 158 | 4.8 | 6.4 | 0.00 | 0.69 | 0.69 | 83 | 1012.3 |
| 20260509035907 | 21 | 158 | 4.8 | 6.4 | 0.00 | 0.69 | 0.69 | 82 | 1013.1 |
| 20260509035405 | 22 | 202 | 3.2 | 6.4 | 0.00 | 0.69 | 0.69 | 81 | 1013.1 |
| 20260509034901 | 22 | 180 | 0.0 | 3.2 | 0.00 | 0.69 | 0.69 | 79 | 1013.1 |
| 20260509034355 | 22 | 202 | 0.0 | 0.0 | 0.00 | 0.69 | 0.69 | 79 | 1013.6 |
| 20260509033845 | 22 | 270 | 0.0 | 0.0 | 0.00 | 0.69 | 0.69 | 79 | 1013.6 |
| 20260509033316 | 22 | 270 | 0.0 | 0.0 | 0.00 | 0.69 | 0.69 | 79 | 1013.1 |
| 20260509032801 | 22 | 225 | 0.0 | 0.0 | 0.00 | 0.69 | 0.69 | 79 | 1013.1 |
| 20260509032756 | 22 | 112 | 0.0 | 0.0 | 0.00 | 0.69 | 0.69 | 79 | 1012.9 |
| 20260509031754 | 22 | 225 | 0.0 | 0.0 | 0.00 | 0.69 | 0.69 | 79 | 1012.9 |
| 20260509031242 | 22 | 158 | 0.0 | 3.2 | 0.00 | 0.69 | 0.69 | 79 | 1012.9 |
| 20260509030949 | 21 | 158 | 1.6 | 3.2 | 0.00 | 0.69 | 0.69 | 79 | 1013.0 |
| 20260509030223 | 21 | 180 | 0.0 | 0.0 | 0.00 | 0.69 | 0.69 | 79 | 1013.0 |
| 20260509025729 | 21 | 180 | 0.0 | 0.0 | 0.00 | 0.69 | 0.69 | 79 | 1012.7 |
| 20260509025209 | 21 | 90 | 0.0 | 1.6 | 0.00 | 0.69 | 0.69 | 79 | 1012.7 |
| 20260509024654 | 21 | 315 | 0.0 | 4.8 | 0.00 | 0.69 | 0.69 | 79 | 1012.2 |
| 20260509024150 | 21 | 202 | 3.2 | 4.8 | 0.00 | 0.69 | 0.69 | 79 | 1012.2 |
| 20260509023923 | 21 | 202 | 1.6 | 4.8 | 0.00 | 0.69 | 0.69 | 79 | 1012.2 |
| 20260509023141 | 21 | 180 | 3.2 | 4.8 | 0.00 | 0.69 | 0.69 | 79 | 1011.8 |
| 20260509022906 | 21 | 225 | 1.6 | 8.0 | 0.00 | 0.69 | 0.69 | 79 | 1011.8 |
| 20260509022116 | 22 | 112 | 3.2 | 8.0 | 0.00 | 0.69 | 0.69 | 79 | 1011.7 |
| 20260509021611 | 22 | 112 | 3.2 | 4.8 | 0.00 | 0.69 | 0.69 | 78 | 1011.7 |
| 20260509021100 | 22 | 270 | 1.6 | 3.2 | 0.00 | 0.69 | 0.69 | 78 | 1011.7 |
| 20260509020813 | 22 | 158 | 3.2 | 3.2 | 0.00 | 0.69 | 0.69 | 78 | 1011.7 |
| 20260509020042 | 22 | 158 | 1.6 | 3.2 | 0.00 | 0.69 | 0.69 | 78 | 1011.7 |
| 20260509015513 | 22 | 225 | 3.2 | 4.8 | 0.00 | 0.69 | 0.69 | 78 | 1011.6 |
| 20260509015007 | 22 | 225 | 3.2 | 4.8 | 0.00 | 0.69 | 0.69 | 77 | 1011.6 |
| 20260509014500 | 22 | 158 | 3.2 | 3.2 | 0.00 | 0.69 | 0.69 | 77 | 1011.4 |
| 20260509013945 | 22 | 202 | 1.6 | 3.2 | 0.00 | 0.69 | 0.69 | 77 | 1011.4 |
| 20260509013438 | 22 | 180 | 0.0 | 3.2 | 0.00 | 0.69 | 0.69 | 77 | 1011.5 |
| 20260509012935 | 22 | 202 | 1.6 | 3.2 | 0.00 | 0.69 | 0.69 | 77 | 1011.5 |
| 20260509012424 | 22 | 158 | 0.0 | 3.2 | 0.00 | 0.69 | 0.69 | 77 | 1011.5 |
| 20260509012133 | 22 | 202 | 1.6 | 4.8 | 0.00 | 0.69 | 0.69 | 76 | 1011.4 |
| 20260509011405 | 22 | 158 | 3.2 | 4.8 | 0.00 | 0.69 | 0.69 | 76 | 1011.4 |
| 20260509010902 | 22 | 158 | 1.6 | 4.8 | 0.00 | 0.69 | 0.69 | 75 | 1011.5 |
| 20260509010351 | 22 | 158 | 1.6 | 4.8 | 0.00 | 0.69 | 0.69 | 75 | 1011.5 |
| 20260509005827 | 22 | 202 | 3.2 | 4.8 | 0.00 | 0.69 | 0.69 | 75 | 1011.1 |
| 20260509005254 | 23 | 158 | 3.2 | 4.8 | 0.00 | 0.69 | 0.69 | 74 | 1011.1 |
| 20260509004723 | 23 | 225 | 3.2 | 6.4 | 0.00 | 0.69 | 0.69 | 74 | 1010.7 |
| 20260509004209 | 23 | 112 | 4.8 | 6.4 | 0.00 | 0.69 | 0.69 | 73 | 1010.7 |
| 20260509003626 | 23 | 112 | 3.2 | 6.4 | 0.00 | 0.69 | 0.69 | 73 | 1010.7 |
| 20260509003110 | 23 | 90 | 4.8 | 6.4 | 0.00 | 0.69 | 0.69 | 73 | 1010.8 |
| 20260509002606 | 23 | 158 | 3.2 | 6.4 | 0.00 | 0.69 | 0.69 | 72 | 1010.8 |
| 20260509002035 | 23 | 112 | 3.2 | 4.8 | 0.00 | 0.69 | 0.69 | 72 | 1010.8 |
| 20260509001749 | 23 | 202 | 3.2 | 6.4 | 0.00 | 0.69 | 0.69 | 71 | 1010.8 |
| 20260509001023 | 24 | 202 | 3.2 | 6.4 | 0.00 | 0.69 | 0.69 | 71 | 1010.9 |
| 20260509000455 | 24 | 158 | 3.2 | 4.8 | 0.00 | 0.69 | 0.69 | 70 | 1010.9 |
| 20260508235925 | 24 | 90 | 3.2 | 4.8 | 0.00 | 0.69 | 0.69 | 70 | 1011.3 |
| 20260508235411 | 24 | 180 | 3.2 | 4.8 | 0.00 | 0.69 | 0.69 | 70 | 1011.3 |
| 20260508235350 | 24 | 180 | 3.2 | 6.4 | 0.00 | 0.69 | 0.69 | 70 | 1011.3 |
| 20260508234400 | 24 | 112 | 3.2 | 6.4 | 0.00 | 0.69 | 0.69 | 69 | 1011.3 |
| 20260508233850 | 25 | 135 | 4.8 | 6.4 | 0.00 | 0.69 | 0.69 | 68 | 1011.3 |
| 20260508233321 | 25 | 338 | 4.8 | 6.4 | 0.00 | 0.69 | 0.69 | 68 | 1011.4 |
| 20260508232807 | 25 | 180 | 4.8 | 8.0 | 0.00 | 0.69 | 0.69 | 67 | 1011.4 |
| 20260508232501 | 25 | 68 | 3.2 | 6.4 | 0.00 | 0.69 | 0.69 | 67 | 1011.3 |
| 20260508232445 | 25 | 112 | 4.8 | 8.0 | 0.00 | 0.69 | 0.69 | 67 | 1011.3 |
| 20260508231247 | 25 | 90 | 3.2 | 6.4 | 0.00 | 0.69 | 0.69 | 67 | 1011.3 |
| 20260508231000 | 25 | 270 | 3.2 | 4.8 | 0.00 | 0.69 | 0.69 | 67 | 1011.5 |
| 20260508230228 | 26 | 202 | 3.2 | 4.8 | 0.00 | 0.69 | 0.69 | 67 | 1011.5 |
| 20260508225714 | 26 | 180 | 3.2 | 4.8 | 0.00 | 0.69 | 0.69 | 67 | 1011.3 |
| 20260508225433 | 26 | 202 | 4.8 | 6.4 | 0.00 | 0.69 | 0.69 | 67 | 1011.3 |
| 20260508224645 | 26 | 180 | 4.8 | 6.4 | 0.00 | 0.69 | 0.69 | 67 | 1011.4 |
| 20260508224130 | 26 | 45 | 4.8 | 6.4 | 0.00 | 0.69 | 0.69 | 67 | 1011.4 |
| 20260508223618 | 26 | 90 | 3.2 | 6.4 | 0.00 | 0.69 | 0.69 | 67 | 1011.4 |
| 20260508223057 | 26 | 180 | 4.8 | 6.4 | 0.00 | 0.69 | 0.69 | 67 | 1011.3 |
| 20260508222542 | 26 | 292 | 3.2 | 6.4 | 0.00 | 0.69 | 0.69 | 68 | 1011.3 |
| 20260508222306 | 26 | 248 | 3.2 | 6.4 | 0.00 | 0.69 | 0.69 | 68 | 1011.3 |
| 20260508221757 | 26 | 90 | 4.8 | 8.0 | 0.00 | 0.69 | 0.69 | 68 | 1011.3 |
| 20260508221022 | 26 | 112 | 4.8 | 8.0 | 0.00 | 0.69 | 0.69 | 67 | 1011.1 |
| 20260508220507 | 26 | 225 | 3.2 | 6.4 | 0.00 | 0.69 | 0.69 | 67 | 1011.1 |
| 20260508220008 | 25 | 202 | 3.2 | 6.4 | 0.00 | 0.69 | 0.69 | 66 | 1011.1 |
| 20260508215439 | 26 | 45 | 4.8 | 6.4 | 0.00 | 0.69 | 0.69 | 66 | 1011.1 |
| 20260508214910 | 25 | 180 | 3.2 | 6.4 | 0.00 | 0.69 | 0.69 | 66 | 1011.1 |
| 20260508214620 | 25 | 270 | 4.8 | 8.0 | 0.00 | 0.69 | 0.69 | 65 | 1011.0 |
| 20260508213850 | 26 | 225 | 4.8 | 8.0 | 0.00 | 0.69 | 0.69 | 65 | 1011.0 |
| 20260508213347 | 26 | 90 | 4.8 | 6.4 | 0.00 | 0.69 | 0.69 | 65 | 1011.4 |
| 20260508212836 | 26 | 180 | 4.8 | 9.7 | 0.00 | 0.69 | 0.69 | 64 | 1011.4 |
| 20260508212307 | 26 | 68 | 6.4 | 9.7 | 0.00 | 0.69 | 0.69 | 64 | 1011.7 |
| 20260508211752 | 26 | 158 | 4.8 | 8.0 | 0.00 | 0.69 | 0.69 | 65 | 1011.7 |
| 20260508211248 | 25 | 112 | 4.8 | 8.0 | 0.00 | 0.69 | 0.69 | 66 | 1011.7 |
| 20260508210719 | 26 | 90 | 3.2 | 8.0 | 0.00 | 0.69 | 0.69 | 67 | 1012.4 |
| 20260508210216 | 25 | 225 | 4.8 | 6.4 | 0.00 | 0.69 | 0.69 | 67 | 1012.4 |
| 20260508205705 | 26 | 225 | 3.2 | 6.4 | 0.00 | 0.69 | 0.69 | 65 | 1012.7 |
| 20260508205135 | 25 | 202 | 4.8 | 8.0 | 0.00 | 0.69 | 0.69 | 64 | 1012.7 |
| 20260508204554 | 26 | 202 | 4.8 | 8.0 | 0.00 | 0.69 | 0.69 | 63 | 1013.0 |
| 20260508204037 | 26 | 158 | 4.8 | 6.4 | 0.00 | 0.69 | 0.69 | 63 | 1013.0 |
| 20260508203508 | 26 | 180 | 4.8 | 6.4 | 0.00 | 0.69 | 0.69 | 61 | 1013.2 |
| 20260508202940 | 27 | 180 | 3.2 | 9.7 | 0.00 | 0.69 | 0.69 | 61 | 1013.2 |
| 20260508202424 | 27 | 338 | 4.8 | 9.7 | 0.00 | 0.69 | 0.69 | 62 | 1013.2 |
| 20260508201911 | 26 | 202 | 4.8 | 6.4 | 0.00 | 0.69 | 0.69 | 63 | 1013.0 |
| 20260508201351 | 26 | 180 | 4.8 | 6.4 | 0.00 | 0.69 | 0.69 | 62 | 1013.0 |
| 20260508201043 | 26 | 112 | 4.8 | 6.4 | 0.00 | 0.69 | 0.69 | 62 | 1013.1 |
| 20260508200254 | 27 | 158 | 3.2 | 6.4 | 0.00 | 0.69 | 0.69 | 62 | 1013.1 |
| 20260508195748 | 27 | 112 | 4.8 | 6.4 | 0.00 | 0.69 | 0.69 | 61 | 1013.2 |
| 20260508195501 | 27 | 158 | 3.2 | 6.4 | 0.00 | 0.69 | 0.69 | 61 | 1013.2 |
| 20260508194709 | 27 | 22 | 4.8 | 6.4 | 0.00 | 0.69 | 0.69 | 61 | 1013.3 |
| 20260508194141 | 27 | 225 | 3.2 | 6.4 | 0.00 | 0.69 | 0.69 | 60 | 1013.3 |
| 20260508193558 | 27 | 180 | 3.2 | 6.4 | 0.00 | 0.69 | 0.69 | 59 | 1013.5 |
| 20260508193042 | 27 | 225 | 3.2 | 6.4 | 0.00 | 0.69 | 0.69 | 60 | 1013.5 |
| 20260508192513 | 26 | 68 | 4.8 | 6.4 | 0.00 | 0.69 | 0.69 | 59 | 1013.5 |
| 20260508191931 | 27 | 270 | 4.8 | 6.4 | 0.00 | 0.69 | 0.69 | 59 | 1013.6 |
| 20260508191429 | 27 | 270 | 3.2 | 4.8 | 0.00 | 0.69 | 0.69 | 57 | 1013.6 |
| 20260508190917 | 28 | 180 | 3.2 | 8.0 | 0.00 | 0.69 | 0.69 | 57 | 1013.7 |
| 20260508190409 | 27 | 225 | 6.4 | 8.0 | 0.00 | 0.69 | 0.69 | 57 | 1013.7 |
| 20260508185857 | 27 | 158 | 3.2 | 6.4 | 0.00 | 0.69 | 0.69 | 58 | 1013.6 |
| 20260508185341 | 27 | 112 | 3.2 | 4.8 | 0.00 | 0.69 | 0.69 | 59 | 1013.6 |
| 20260508184811 | 27 | 180 | 4.8 | 6.4 | 0.00 | 0.69 | 0.69 | 58 | 1013.8 |
| 20260508184257 | 26 | 248 | 3.2 | 6.4 | 0.00 | 0.69 | 0.69 | 59 | 1013.8 |
| 20260508183753 | 26 | 90 | 3.2 | 4.8 | 0.00 | 0.69 | 0.69 | 59 | 1013.8 |
| 20260508183248 | 26 | 270 | 3.2 | 4.8 | 0.00 | 0.69 | 0.69 | 58 | 1014.1 |
| 20260508182738 | 27 | 225 | 3.2 | 6.4 | 0.00 | 0.69 | 0.69 | 58 | 1014.1 |
| 20260508182451 | 26 | 202 | 4.8 | 6.4 | 0.00 | 0.69 | 0.69 | 58 | 1014.3 |
| 20260508181719 | 26 | 158 | 3.2 | 8.0 | 0.00 | 0.69 | 0.69 | 59 | 1014.3 |
| 20260508181204 | 26 | 135 | 4.8 | 8.0 | 0.00 | 0.69 | 0.69 | 60 | 1014.3 |
| 20260508180651 | 26 | 158 | 4.8 | 8.0 | 0.00 | 0.69 | 0.69 | 59 | 1014.5 |
| 20260508180134 | 27 | 180 | 4.8 | 8.0 | 0.00 | 0.69 | 0.69 | 59 | 1014.5 |
| 20260508175625 | 27 | 338 | 3.2 | 8.0 | 0.00 | 0.69 | 0.69 | 58 | 1014.7 |
| 20260508175557 | 26 | 202 | 4.8 | 6.4 | 0.00 | 0.69 | 0.69 | 58 | 1014.7 |
| 20260508174611 | 26 | 225 | 4.8 | 6.4 | 0.00 | 0.69 | 0.69 | 58 | 1014.8 |
| 20260508174048 | 26 | 225 | 4.8 | 6.4 | 0.00 | 0.69 | 0.69 | 58 | 1014.8 |
| 20260508173546 | 26 | 112 | 3.2 | 4.8 | 0.00 | 0.69 | 0.69 | 58 | 1015.1 |
| 20260508173041 | 26 | 180 | 3.2 | 6.4 | 0.00 | 0.69 | 0.69 | 59 | 1015.1 |
| 20260508172537 | 26 | 68 | 3.2 | 6.4 | 0.00 | 0.69 | 0.69 | 60 | 1015.1 |
| 20260508172028 | 26 | 158 | 4.8 | 6.4 | 0.00 | 0.69 | 0.69 | 60 | 1015.4 |
| 20260508171513 | 24 | 248 | 3.2 | 4.8 | 0.00 | 0.69 | 0.69 | 63 | 1015.4 |
| 20260508170959 | 25 | 45 | 3.2 | 6.4 | 0.00 | 0.69 | 0.69 | 62 | 1015.8 |
| 20260508170716 | 25 | 112 | 3.2 | 6.4 | 0.00 | 0.69 | 0.69 | 62 | 1015.8 |
| 20260508165954 | 25 | 315 | 3.2 | 6.4 | 0.00 | 0.69 | 0.69 | 63 | 1015.9 |
| 20260508165425 | 23 | 225 | 4.8 | 6.4 | 0.00 | 0.69 | 0.69 | 63 | 1015.9 |
| 20260508164909 | 24 | 202 | 4.8 | 6.4 | 0.00 | 0.69 | 0.69 | 64 | 1015.9 |
| 20260508164404 | 23 | 68 | 3.2 | 6.4 | 0.00 | 0.69 | 0.69 | 66 | 1016.2 |
| 20260508163900 | 23 | 225 | 3.2 | 6.4 | 0.00 | 0.69 | 0.69 | 65 | 1016.2 |
| 20260508163351 | 22 | 202 | 3.2 | 4.8 | 0.00 | 0.69 | 0.69 | 67 | 1016.6 |
| 20260508163052 | 22 | 225 | 3.2 | 4.8 | 0.00 | 0.69 | 0.69 | 67 | 1016.6 |
| 20260508162515 | 22 | 112 | 3.2 | 4.8 | 0.00 | 0.69 | 0.69 | 67 | 1016.6 |
| 20260508161741 | 22 | 22 | 3.2 | 4.8 | 0.00 | 0.69 | 0.69 | 67 | 1016.6 |
| 20260508161155 | 22 | 68 | 3.2 | 4.8 | 0.00 | 0.69 | 0.69 | 68 | 1016.4 |
| 20260508160640 | 22 | 202 | 3.2 | 6.4 | 0.00 | 0.69 | 0.69 | 70 | 1016.4 |
| 20260508160134 | 22 | 112 | 4.8 | 8.0 | 0.00 | 0.69 | 0.69 | 69 | 1016.4 |
| 20260508160121 | 21 | 68 | 4.8 | 8.0 | 0.00 | 0.69 | 0.69 | 71 | 1016.9 |
| 20260508155120 | 21 | 158 | 3.2 | 6.4 | 0.00 | 0.69 | 0.69 | 71 | 1016.9 |
| 20260508154552 | 20 | 112 | 4.8 | 6.4 | 0.00 | 0.69 | 0.69 | 72 | 1016.9 |
| 20260508154037 | 20 | 180 | 3.2 | 4.8 | 0.00 | 0.69 | 0.69 | 74 | 1016.9 |
| 20260508153531 | 20 | 225 | 3.2 | 4.8 | 0.00 | 0.69 | 0.69 | 73 | 1016.9 |
| 20260508153029 | 20 | 225 | 3.2 | 6.4 | 0.00 | 0.69 | 0.69 | 75 | 1016.9 |
| 20260508152518 | 20 | 45 | 3.2 | 6.4 | 0.00 | 0.69 | 0.69 | 75 | 1016.9 |
| 20260508152002 | 20 | 112 | 3.2 | 4.8 | 0.00 | 0.69 | 0.69 | 76 | 1017.1 |
| 20260508151458 | 20 | 225 | 3.2 | 4.8 | 0.00 | 0.69 | 0.69 | 76 | 1017.1 |
| 20260508150954 | 20 | 225 | 1.6 | 4.8 | 0.00 | 0.69 | 0.69 | 76 | 1017.1 |
| 20260508150444 | 19 | 225 | 3.2 | 4.8 | 0.00 | 0.69 | 0.69 | 76 | 1017.1 |
| 20260508145929 | 19 | 68 | 3.2 | 4.8 | 0.00 | 0.69 | 0.69 | 78 | 1017.1 |
| 20260508145423 | 19 | 248 | 3.2 | 4.8 | 0.00 | 0.69 | 0.69 | 78 | 1017.1 |
| 20260508144920 | 19 | 90 | 3.2 | 4.8 | 0.00 | 0.69 | 0.69 | 78 | 1017.1 |
| 20260508144411 | 18 | 135 | 3.2 | 4.8 | 0.00 | 0.69 | 0.69 | 80 | 1017.1 |
| 20260508143855 | 18 | 202 | 3.2 | 4.8 | 0.00 | 0.69 | 0.69 | 79 | 1017.1 |
| 20260508143351 | 18 | 135 | 3.2 | 4.8 | 0.00 | 0.69 | 0.69 | 80 | 1017.3 |
| 20260508143107 | 18 | 112 | 3.2 | 4.8 | 0.00 | 0.69 | 0.69 | 82 | 1017.3 |
| 20260508142337 | 18 | 158 | 1.6 | 4.8 | 0.00 | 0.69 | 0.69 | 82 | 1017.3 |
| 20260508142043 | 17 | 158 | 3.2 | 4.8 | 0.00 | 0.69 | 0.69 | 84 | 1017.3 |
| 20260508141317 | 17 | 180 | 1.6 | 4.8 | 0.00 | 0.69 | 0.69 | 85 | 1017.3 |
| 20260508141019 | 17 | 112 | 3.2 | 6.4 | 0.00 | 0.69 | 0.69 | 86 | 1017.3 |
| 20260508140302 | 17 | 90 | 3.2 | 6.4 | 0.00 | 0.69 | 0.69 | 87 | 1017.3 |
| 20260508135749 | 17 | 112 | 1.6 | 4.8 | 0.00 | 0.69 | 0.69 | 87 | 1017.4 |
| 20260508135151 | 16 | 180 | 0.0 | 4.8 | 0.03 | 0.69 | 0.69 | 88 | 1017.4 |
| 20260508134635 | 16 | 22 | 3.2 | 4.8 | 0.03 | 0.69 | 0.69 | 88 | 1017.2 |
| 20260508134120 | 16 | 225 | 1.6 | 4.8 | 0.03 | 0.69 | 0.69 | 89 | 1017.2 |
| 20260508133833 | 16 | 180 | 3.2 | 4.8 | 0.03 | 0.69 | 0.69 | 90 | 1017.2 |
| 20260508133046 | 16 | 158 | 0.0 | 3.2 | 0.03 | 0.69 | 0.69 | 90 | 1017.4 |
| 20260508132541 | 16 | 112 | 0.0 | 3.2 | 0.03 | 0.69 | 0.69 | 90 | 1017.4 |
| 20260508132032 | 16 | 158 | 0.0 | 3.2 | 0.03 | 0.69 | 0.69 | 90 | 1017.4 |
| 20260508131519 | 15 | 90 | 0.0 | 3.2 | 0.03 | 0.69 | 0.69 | 90 | 1017.4 |
| 20260508131012 | 15 | 112 | 0.0 | 0.0 | 0.03 | 0.69 | 0.69 | 90 | 1017.7 |
| 20260508130508 | 15 | 112 | 0.0 | 0.0 | 0.03 | 0.69 | 0.69 | 90 | 1017.7 |
| 20260508125945 | 15 | 112 | 0.0 | 0.0 | 0.10 | 0.69 | 0.69 | 90 | 1017.6 |
| 20260508125444 | 15 | 225 | 0.0 | 0.0 | 0.10 | 0.69 | 0.69 | 90 | 1017.6 |
| 20260508124938 | 15 | 292 | 0.0 | 0.0 | 0.08 | 0.66 | 0.66 | 90 | 1017.6 |
| 20260508124436 | 15 | 270 | 0.0 | 0.0 | 0.08 | 0.66 | 0.66 | 90 | 1017.7 |
| 20260508123907 | 15 | 225 | 0.0 | 0.0 | 0.08 | 0.66 | 0.66 | 90 | 1017.7 |
| 20260508123337 | 15 | 202 | 0.0 | 0.0 | 0.08 | 0.66 | 0.66 | 90 | 1017.8 |
| 20260508122827 | 15 | 202 | 0.0 | 0.0 | 0.08 | 0.66 | 0.66 | 90 | 1017.8 |
| 20260508122257 | 15 | 248 | 0.0 | 0.0 | 0.08 | 0.66 | 0.66 | 90 | 1017.5 |
| 20260508121743 | 15 | 225 | 0.0 | 0.0 | 0.08 | 0.66 | 0.66 | 90 | 1017.5 |
| 20260508121237 | 15 | 45 | 0.0 | 3.2 | 0.10 | 0.66 | 0.66 | 90 | 1017.5 |
| 20260508120955 | 15 | 135 | 1.6 | 3.2 | 0.10 | 0.66 | 0.66 | 90 | 1017.5 |
| 20260508120223 | 15 | 158 | 0.0 | 3.2 | 0.03 | 0.58 | 0.58 | 90 | 1017.5 |
| 20260508115710 | 15 | 225 | 0.0 | 3.2 | 0.03 | 0.58 | 0.58 | 90 | 1017.3 |
| 20260508115413 | 15 | 270 | 1.6 | 4.8 | 0.03 | 0.58 | 0.58 | 90 | 1017.3 |
| 20260508114635 | 15 | 180 | 3.2 | 4.8 | 0.03 | 0.58 | 0.58 | 90 | 1017.4 |
| 20260508114130 | 15 | 158 | 1.6 | 4.8 | 0.03 | 0.58 | 0.58 | 90 | 1017.4 |
| 20260508113607 | 15 | 180 | 1.6 | 3.2 | 0.03 | 0.58 | 0.58 | 90 | 1017.4 |
| 20260508113107 | 15 | 270 | 0.0 | 0.0 | 0.05 | 0.58 | 0.58 | 90 | 1017.3 |
| 20260508112537 | 15 | 202 | 0.0 | 3.2 | 0.08 | 0.58 | 0.58 | 90 | 1017.3 |
| 20260508112255 | 15 | 180 | 1.6 | 3.2 | 0.15 | 0.58 | 0.58 | 90 | 1017.4 |
| 20260508111512 | 15 | 90 | 0.0 | 4.8 | 0.15 | 0.58 | 0.58 | 90 | 1017.4 |
| 20260508111005 | 15 | 90 | 1.6 | 4.8 | 0.13 | 0.56 | 0.56 | 90 | 1018.1 |
| 20260508110451 | 15 | 112 | 0.0 | 0.0 | 0.13 | 0.56 | 0.56 | 90 | 1018.1 |
| 20260508110139 | 15 | 202 | 0.0 | 3.2 | 0.13 | 0.56 | 0.56 | 90 | 1017.4 |
| 20260508105406 | 15 | 248 | 0.0 | 3.2 | 0.13 | 0.56 | 0.56 | 90 | 1017.4 |
| 20260508104836 | 15 | 180 | 0.0 | 4.8 | 0.13 | 0.56 | 0.56 | 90 | 1017.4 |
| 20260508104332 | 15 | 112 | 1.6 | 4.8 | 0.13 | 0.56 | 0.56 | 90 | 1017.9 |
| 20260508103811 | 15 | 270 | 3.2 | 4.8 | 0.13 | 0.56 | 0.56 | 90 | 1017.9 |
| 20260508103302 | 15 | 270 | 0.0 | 3.2 | 0.13 | 0.56 | 0.56 | 89 | 1017.3 |
| 20260508103023 | 15 | 90 | 0.0 | 4.8 | 0.10 | 0.53 | 0.53 | 89 | 1017.3 |
| 20260508102256 | 15 | 270 | 3.2 | 4.8 | 0.03 | 0.46 | 0.46 | 89 | 1016.4 |
| 20260508102155 | 15 | 270 | 0.0 | 0.0 | 0.00 | 0.43 | 0.43 | 89 | 1016.4 |
| 20260508102146 | 15 | 202 | 0.0 | 0.0 | 0.00 | 0.43 | 0.43 | 89 | 1016.4 |
| 20260508100730 | 15 | 202 | 0.0 | 0.0 | 0.00 | 0.43 | 0.43 | 89 | 1016.3 |
| 20260508100223 | 15 | 202 | 0.0 | 0.0 | 0.03 | 0.43 | 0.43 | 89 | 1016.3 |
| 20260508100205 | 15 | 180 | 0.0 | 0.0 | 0.03 | 0.43 | 0.43 | 89 | 1016.4 |
| 20260508095209 | 15 | 180 | 0.0 | 0.0 | 0.03 | 0.43 | 0.43 | 89 | 1016.4 |
| 20260508094640 | 15 | 180 | 0.0 | 1.6 | 0.03 | 0.43 | 0.43 | 89 | 1016.7 |
| 20260508094344 | 15 | 202 | 0.0 | 1.6 | 0.03 | 0.43 | 0.43 | 89 | 1016.7 |
| 20260508093621 | 15 | 180 | 0.0 | 0.0 | 0.03 | 0.43 | 0.43 | 89 | 1016.7 |
| 20260508093116 | 15 | 202 | 0.0 | 0.0 | 0.08 | 0.43 | 0.43 | 89 | 1016.6 |
| 20260508092606 | 15 | 202 | 0.0 | 0.0 | 0.10 | 0.43 | 0.43 | 89 | 1016.6 |
| 20260508092023 | 15 | 180 | 0.0 | 3.2 | 0.10 | 0.43 | 0.43 | 89 | 1016.8 |
| 20260508091744 | 15 | 158 | 0.0 | 3.2 | 0.20 | 0.43 | 0.43 | 89 | 1016.8 |
| 20260508090954 | 15 | 225 | 0.0 | 3.2 | 0.41 | 0.43 | 0.43 | 89 | 1017.0 |
| 20260508090425 | 15 | 180 | 0.0 | 3.2 | 0.41 | 0.41 | 0.41 | 89 | 1017.0 |
| 20260508085856 | 15 | 225 | 0.0 | 0.0 | 0.41 | 0.41 | 0.41 | 88 | 1017.5 |
| 20260508085350 | 15 | 225 | 0.0 | 4.8 | 0.41 | 0.41 | 0.41 | 88 | 1017.5 |
| 20260508084845 | 15 | 270 | 3.2 | 4.8 | 0.41 | 0.41 | 0.41 | 88 | 1017.5 |
| 20260508084321 | 15 | 270 | 1.6 | 4.8 | 0.41 | 0.41 | 0.41 | 87 | 1016.1 |
| 20260508083821 | 15 | 180 | 3.2 | 4.8 | 0.41 | 0.41 | 0.41 | 87 | 1016.1 |
| 20260508083316 | 15 | 112 | 3.2 | 4.8 | 0.36 | 0.36 | 0.36 | 87 | 1017.4 |
| 20260508082814 | 16 | 90 | 0.0 | 3.2 | 0.33 | 0.33 | 0.33 | 87 | 1017.4 |
| 20260508082228 | 16 | 158 | 0.0 | 1.6 | 0.33 | 0.33 | 0.33 | 87 | 1017.6 |
| 20260508081719 | 16 | 225 | 0.0 | 3.2 | 0.33 | 0.33 | 0.33 | 85 | 1017.6 |
| 20260508081219 | 16 | 225 | 1.6 | 3.2 | 0.23 | 0.23 | 0.23 | 84 | 1017.6 |
| 20260508080713 | 16 | 90 | 1.6 | 3.2 | 0.03 | 0.03 | 0.03 | 83 | 1018.5 |
| 20260508080435 | 16 | 225 | 0.0 | 0.0 | 0.00 | 0.00 | 0.00 | 82 | 1018.5 |
| 20260508075700 | 16 | 248 | 0.0 | 0.0 | 0.00 | 0.00 | 0.00 | 82 | 1018.4 |
| 20260508075111 | 16 | 225 | 0.0 | 0.0 | 0.00 | 0.00 | 0.00 | 82 | 1018.4 |
| 20260508074602 | 16 | 248 | 0.0 | 0.0 | 0.00 | 0.00 | 0.00 | 82 | 1018.0 |
| 20260508074048 | 16 | 225 | 0.0 | 0.0 | 0.00 | 0.00 | 0.00 | 81 | 1018.0 |
| 20260508073518 | 16 | 270 | 0.0 | 0.0 | 0.00 | 0.00 | 0.00 | 81 | 1017.8 |
| 20260508073011 | 16 | 202 | 0.0 | 0.0 | 0.00 | 0.00 | 0.00 | 81 | 1017.8 |
| 20260508072509 | 16 | 180 | 0.0 | 0.0 | 0.00 | 0.00 | 0.00 | 81 | 1017.8 |
| 20260508071939 | 16 | 225 | 0.0 | 0.0 | 0.00 | 0.00 | 0.00 | 81 | 1018.0 |
| 20260508071428 | 16 | 202 | 0.0 | 0.0 | 0.00 | 0.00 | 0.00 | 81 | 1018.0 |
| 20260508070914 | 16 | 202 | 0.0 | 0.0 | 0.00 | 0.00 | 0.00 | 81 | 1018.0 |
| 20260508070642 | 16 | 202 | 0.0 | 0.0 | 0.00 | 0.00 | 0.00 | 81 | 1018.0 |
| 20260508065905 | 16 | 180 | 0.0 | 0.0 | 0.00 | 0.00 | 0.00 | 81 | 1018.3 |
| 20260508065406 | 16 | 135 | 0.0 | 0.0 | 0.00 | 0.00 | 0.00 | 81 | 1018.3 |
| 20260508064826 | 16 | 270 | 0.0 | 0.0 | 0.00 | 0.00 | 0.00 | 81 | 1018.3 |
| 20260508064312 | 16 | 270 | 0.0 | 0.0 | 0.00 | 0.00 | 0.00 | 81 | 1018.5 |
| 20260508063807 | 16 | 270 | 0.0 | 0.0 | 0.00 | 0.00 | 0.00 | 80 | 1018.5 |
| 20260508063303 | 16 | 270 | 0.0 | 0.0 | 0.00 | 0.00 | 0.00 | 80 | 1018.6 |
| 20260508062753 | 16 | 180 | 0.0 | 0.0 | 0.00 | 0.00 | 0.00 | 80 | 1018.6 |
| 20260508062223 | 16 | 180 | 0.0 | 1.6 | 0.00 | 0.00 | 0.00 | 80 | 1018.5 |
| 20260508061708 | 16 | 158 | 0.0 | 1.6 | 0.00 | 0.00 | 0.00 | 80 | 1018.5 |
| 20260508061203 | 16 | 202 | 0.0 | 0.0 | 0.00 | 0.00 | 0.00 | 80 | 1018.4 |
| 20260508060701 | 16 | 225 | 0.0 | 0.0 | 0.00 | 0.00 | 0.00 | 80 | 1018.4 |
| 20260508060150 | 16 | 112 | 0.0 | 0.0 | 0.00 | 0.00 | 0.00 | 80 | 1018.4 |
| 20260508055621 | 16 | 202 | 0.0 | 0.0 | 0.00 | 0.00 | 0.00 | 80 | 1018.3 |
| 20260508055051 | 16 | 202 | 0.0 | 0.0 | 0.00 | 0.00 | 0.00 | 79 | 1018.3 |
| 20260508054802 | 16 | 158 | 0.0 | 0.0 | 0.00 | 0.00 | 0.00 | 79 | 1018.5 |
| 20260508054007 | 16 | 180 | 0.0 | 0.0 | 0.00 | 0.00 | 0.00 | 79 | 1018.5 |